Etusivu
METAR-TAF:

METAR-TAF

Lentoasemat :

Los Alamos, New Mexico, Yhdysvallat

Leveyspiiri: 35-53N, Pituuspiiri: 106-17W, korkeus merenpinnasta: 2179 m

Tämänhetkinen sää

Tämä raportti tehtiin 27 minuuttia sitten, kello 02.35 UTC
Tuuli 6 kn lännestä/lounaasta
Lämpötila 12°C
Kosteus 24%
Ilmanpaine 1014 hPa
Näkyvyys: 16.1 km
selkeää

METAR: KLAM 200235Z AUTO 24006KT 10SM CLR 12/M08 A2995 RMK AO2 T01201083

Aika: 20:02 (03:02 UTC)


TAF: puuttuu

Säähavainnot ja -ennusteet yli 4000 lentoasemalta (METAR- ja TAF-raportit).

Käytössä olevat sääasemat on merkitty karttaan keltaisilla ja punaisilla pisteillä.

Aseta hiiri pisteen päälle nähdäksesi sääaseman nimen.

Klikkaa sitten nähdäksesi säähavainnot ja -ennusteet.

Kartan vaihtaminen: klikkaa mustalla rastilla varustettuja vihreitä pisteitä, niin voit zoomata sisään; viivalla varustettua vihreää pistettä, niin voit zoomata ulos tai vihreitä nuolia, niin pääset viereisille kartoille.


METAR-TAF: